Regional Weather Roundup
Issued by NWS Charleston, WV

Home | Current Version | Previous Version | Text Only | Print | Product List | Glossary Off
Versions: 1 2 3 4 5 6 7 8 9 10 11 12 13 14 15 16 17 18 19 20 21 22 23 24 25 26 27

000
ASUS41 KRLX 231910
RWRRLX
West Virginia Regional Weather Roundup
National Weather Service Charleston WV
300 PM EDT SAT SEP 23 2017

Note: "fair" indicates few or no clouds below 12,000 feet with no
significant weather and/or obstructions to visibility.

WVZ003-232000-
Northern Panhandle of West Virginia

CITY           SKY/WX    TMP DP  RH WIND       PRES   REMARKS
WHEELING       MOSUNNY   84  55  36 NE8       30.14F
$$

WVZ009-232000-
Northwest West Virginia

CITY           SKY/WX    TMP DP  RH WIND       PRES   REMARKS
PARKERSBURG    SUNNY     88  54  31 E6        30.13F
$$

WVZ006-232000-
Western West Virginia

CITY           SKY/WX    TMP DP  RH WIND       PRES   REMARKS
HUNTINGTON     SUNNY     88  58  36 VRB6      30.08F
$$

WVZ015-232000-
West Central West Virginia

CITY           SKY/WX    TMP DP  RH WIND       PRES   REMARKS
CHARLESTON     MOSUNNY   88  57  34 CALM      30.08F
$$

WVZ022-031-232000-
North Central West Virginia

CITY           SKY/WX    TMP DP  RH WIND       PRES   REMARKS
CLARKSBURG     SUNNY     86  52  30 VRB6      30.12F
MORGANTOWN     SUNNY     84  56  38 N8        30.13F
$$

WVZ025-035-042-045-232000-
Southern West Virginia

CITY           SKY/WX    TMP DP  RH WIND       PRES   REMARKS
BECKLEY        SUNNY     82  53  36 N8        30.15F
LOGAN            N/A     84  61  45 N6G12     30.11F
BLUEFIELD      SUNNY     80  46  30 VRB7      30.17F
LEWISBURG      SUNNY     83  41  22 CALM      30.14F
$$

WVZ047-232000-
Northern Mountains of West Virginia

CITY           SKY/WX    TMP DP  RH WIND       PRES   REMARKS
ELKINS         SUNNY     84  44  24 VRB5      30.15F
$$

WVZ052-232000-
Eastern Panhandle of West Virginia

CITY           SKY/WX    TMP DP  RH WIND       PRES   REMARKS
MARTINSBURG    SUNNY     86  55  34 NE8       30.08F
PETERSBURG     SUNNY     89  54  30 SE6       30.11F
$$




USA.gov is the U.S. government's official web portal to all federal, state and local government web resources and services.